Regional Weather Roundup
Issued by NWS Jackson, KY

Home | Current Version | Previous Version | Graphics & Text | Print | Product List | Glossary On
Versions: 1 2 3 4 5 6 7 8 9 10 11 12 13 14 15 16 17 18 19 20 21 22 23 24 25 26 27
000
ASUS43 KJKL 271110
RWRJKL

EAST KENTUCKY HOURLY WEATHER ROUNDUP
NATIONAL WEATHER SERVICE JACKSON KY
700 AM EDT SAT AUG 27 2016

NOTE: "FAIR" INDICATES FEW OR NO CLOUDS BELOW 12,000 FEET WITH
NO SIGNIFICANT WEATHER AND/OR OBSTRUCTIONS TO VISIBILITY.

* THESE REPORTS ARE NOT UNDER NWS QUALITY CONTROL AND MAY NOT
  REPORT WEATHER SUCH AS PRECIPITATION AND FOG.

KYZ079-080-083-085-087-088-110-112-115-119-120-271200
...EASTERN KENTUCKY...

CITY           SKY/WX    TMP DP  RH WIND       PRES   REMARKS
JACKSON        CLEAR     73  69  87 CALM      30.13R
LONDON         CLEAR     69  66  90 NE3       30.12R
SOMERSET*      PTCLDY    68  68 100 CALM      30.12R FOG
MONTICELLO*    CLOUDY   N/A N/A N/A CALM      30.12R
WILLIAMSBURG*    N/A     68  68 100 CALM      30.12R VSB 3/4
MIDDLESBORO*   FOG       67  67 100 CALM      30.14R VSB 1/4
HARLAN APT*    CLOUDY    68  66  94 CALM      30.16R
PIKE CO APT*     N/A     70  70 100 CALM      30.15R
BIG SANDY APT* FOG       71  71 100 CALM      30.14R VSB 1
MOREHEAD APT*  MOSUNNY   73  70  88 CALM      30.13S
$$

KYZ035-036-041-042-044-050-067-078-099-271200
...CENTRAL KENTUCKY...

CITY           SKY/WX    TMP DP  RH WIND       PRES   REMARKS
MT STERLING*   MOCLDY    68  68 100 E3        30.13R FOG
FLEMING/MASON*   N/A     70  70  99 CALM      30.13R FOG
DANVILLE*      PTCLDY    68  66  94 CALM      30.11R
LEXINGTON      CLOUDY    75  69  81 E5        30.10R
FRANKFORT      MOCLDY    72  69  90 CALM      30.08R FOG
LOUISVILLE     CLOUDY    77  72  84 CALM      30.06R
LEBANON*         N/A     72  70  94 E3        30.09S
GLASGOW*       CLEAR     73  73 100 E6        30.06S
BOWLING GREEN  PTCLDY    73  70  90 W3        30.06R
$$

KYZ091>093-OHZ055-061-077-WVZ005-015-034-035-042-271200
...SOUTHERN OHIO/WEST VIRGINIA...

CITY           SKY/WX    TMP DP  RH WIND       PRES   REMARKS
COLUMBUS       MOCLDY    71  64  78 E3        30.12S
DAYTON         MOCLDY    71  68  90 E6        30.13R
WILMINGTON     CLOUDY    71  70  96 E5        30.12S
HUNTINGTON     FOG       72  70  93 CALM      30.12R VSB 1/4
CHARLESTON     FOG       71  70  96 CALM      30.14R VSB 1
PINEVILLE*     FOG       68  65  90 MISG      30.24R VSB 1/4
BECKLEY        CLEAR     66  64  93 CALM      30.24R
BLUEFIELD      FOG       66  65  96 E3        30.26R VSB 1/4
LOGAN CO APT*    N/A     72  70  94 CALM      30.16R FOG
$$

VAZ002-007-008-TNZ017-027-036-066-071-271200
...SOUTHWEST VIRGINIA/EAST TENNESSEE...

CITY           SKY/WX    TMP DP  RH WIND       PRES   REMARKS
WISE*          CLEAR     72  66  83 SE3       30.23S
JONESVILLE*      N/A     66  66 100 CALM      30.17R
ABINGDON*      CLEAR     69  69  99 E6        30.20R
BRISTOL        MOCLDY    66  65  96 CALM      30.16S FOG
MORRISTOWN*    SUNNY     70  68  94 CALM      30.13R
SEVIERVILLE*   SUNNY     68  66  94 CALM      30.11R
KNOXVILLE      PTCLDY    72  69  90 NE5       30.10R
OAK RIDGE      PTCLDY    73  71  93 CALM      30.12R
CROSSVILLE     CLEAR     68  68 100 CALM      30.15S FOG
NASHVILLE      PTCLDY    73  70  90 CALM      30.06S
$$

...KEY TO REMARKS...
VSB - VISIBILITY IN MILES
WCI - WIND CHILL INDEX
HX  - HEAT INDEX

$$




USA.gov is the U.S. government's official web portal to all federal, state and local government web resources and services.